DateTimeUTC,F1_A11,F1_S11,BsB_S11,BsG_S11,BsR_S11,BbsB_S11,BbsG_S11,BbsR_S11,BaB_A11,BaG_A11,BaR_A11,Tu_S11,T_S11,Uu_S11,U_S11,P_S11,T1_A11
2021-10-08T23:00:00Z,00000200,21000000,,,,,,,-000.22,0000.49,0000.16,16.3,23.5,,00.0,0671.1,30.8
2021-10-08T23:01:00Z,00000200,21000000,,,,,,,0000.13,-000.21,-000.11,16.3,23.6,,00.0,0671.1,30.8
2021-10-08T23:02:00Z,00000200,21000000,,,,,,,-000.18,-000.10,0000.01,16.4,23.6,,00.0,0671.1,30.9
2021-10-08T23:03:00Z,00000200,61000000,,,,,,,0000.14,-000.14,-000.13,16.4,23.6,,00.0,0671.1,30.9
2021-10-08T23:04:00Z,00000200,41000000,0001.81,0001.06,0000.29,0000.47,-000.15,0000.10,0000.59,0000.88,0000.05,16.9,23.6,,00.0,0672.0,30.9
2021-10-08T23:05:00Z,00000200,01000000,0001.43,0001.26,0000.53,0000.10,0000.30,0000.03,0000.55,0000.36,0001.07,17.0,23.6,,00.0,0672.1,30.9
2021-10-08T23:06:00Z,00000200,01000000,0001.51,0001.16,0000.59,0000.19,0000.03,-000.06,0000.38,0000.42,0000.15,17.0,23.6,,00.0,0672.1,30.9
2021-10-08T23:07:00Z,00000200,01000000,0001.21,0001.00,0000.67,-000.23,0000.14,0000.17,-000.04,-000.35,-000.31,17.0,23.6,,00.0,0672.1,30.9
2021-10-08T23:08:00Z,00000200,01000000,0000.98,0001.25,0000.44,-000.13,0000.28,-000.16,0000.03,0000.14,-000.01,16.9,23.5,,00.0,0672.1,30.9
2021-10-08T23:09:00Z,00000200,01000000,0001.13,0001.11,0000.47,0000.42,0000.43,0000.19,0000.46,0000.46,0000.01,16.9,23.5,,00.0,0672.1,30.9
2021-10-08T23:10:00Z,00000200,01000000,0000.82,0000.97,0000.15,0000.11,0000.10,0000.05,-000.22,-000.33,-000.07,16.8,23.4,,00.0,0672.1,30.9
2021-10-08T23:11:00Z,00000200,01000000,0000.90,0000.98,0000.67,-000.49,0000.05,-000.05,0000.43,-000.03,0000.11,16.7,23.4,,00.0,0672.0,30.8
2021-10-08T23:12:00Z,00000200,01000000,0001.78,0000.88,0000.35,-000.34,0000.17,0000.10,0000.34,0000.29,0000.40,16.6,23.3,,00.0,0672.0,30.8
2021-10-08T23:13:00Z,00000200,01000000,0000.96,0000.87,0000.31,0000.51,0000.38,0000.23,0000.25,0000.56,0000.35,16.6,23.3,,00.0,0672.0,30.8
2021-10-08T23:14:00Z,00000200,01000000,0001.20,0000.73,0000.46,0000.20,0000.19,0000.19,-000.94,-000.54,-000.67,16.6,23.3,,00.0,0672.0,30.8
2021-10-08T23:15:00Z,00000200,01000000,0000.99,0000.85,0000.24,-000.03,0000.16,0000.03,-000.03,-000.28,-000.17,16.7,23.3,,00.0,0672.0,30.8
2021-10-08T23:16:00Z,00000200,01000000,0000.64,0000.74,0000.14,-000.27,0000.13,0000.03,0000.26,0000.28,0000.53,16.7,23.3,,00.0,0672.0,30.9
2021-10-08T23:17:00Z,00000200,01000000,0001.46,0001.09,0000.61,-000.36,-000.02,0000.23,0001.05,0000.90,0000.78,16.8,23.4,,00.0,0672.0,30.9
2021-10-08T23:18:00Z,00000200,01000000,0001.49,0000.72,0000.63,-000.21,0000.09,0000.28,0000.76,0000.48,0000.50,16.9,23.4,,00.0,0672.0,30.9
2021-10-08T23:19:00Z,00000200,01000000,0001.53,0000.85,0000.45,0000.41,0000.40,-000.07,0000.37,0000.54,-000.02,17.0,23.5,,00.0,0672.0,30.9
2021-10-08T23:20:00Z,00000200,01000000,0001.11,0001.13,0000.22,0000.28,0000.10,-000.02,0000.37,0000.27,0000.52,17.0,23.5,,00.0,0672.0,30.9
2021-10-08T23:21:00Z,00000200,01000000,0001.18,0000.86,0000.31,0001.05,-000.03,-000.16,0000.18,-000.11,-000.66,16.9,23.4,,00.0,0672.0,30.9
2021-10-08T23:22:00Z,00000200,01000000,0001.09,0000.75,0000.43,-000.47,-000.09,-000.04,-000.54,-000.25,0000.46,16.9,23.4,,00.0,0672.0,30.9
2021-10-08T23:23:00Z,00000200,01000000,0000.89,0000.80,0000.39,-000.37,0000.22,-000.10,0000.38,0000.08,-000.20,16.8,23.4,,00.0,0672.0,30.8
2021-10-08T23:24:00Z,00000200,01000000,0001.16,0000.91,0000.48,0000.32,0000.23,0000.08,-000.22,0000.15,-000.15,16.7,23.3,,00.0,0672.0,30.8
2021-10-08T23:25:00Z,00000200,01000000,0001.60,0000.95,0000.56,0000.31,0000.25,0000.36,0000.01,-000.18,0000.20,16.6,23.3,,00.0,0672.0,30.8
2021-10-08T23:26:00Z,00000200,01000000,0001.53,0000.50,0000.50,0000.53,0000.05,0000.03,0000.38,-000.08,-000.17,16.5,23.2,,00.0,0672.0,30.8
2021-10-08T23:27:00Z,00000200,01000000,0001.54,0000.63,0000.37,0000.62,0000.40,0000.08,0000.24,0000.15,0000.46,16.4,23.2,,00.0,0672.0,30.8
2021-10-08T23:28:00Z,00000200,01000000,0001.24,0000.76,0000.43,0000.12,-000.22,0000.12,0000.37,0000.54,0000.43,16.4,23.1,,00.0,0672.0,30.8
2021-10-08T23:29:00Z,00000200,01000000,0001.46,0000.88,0000.44,-000.13,0000.17,-000.07,0000.69,0000.97,0000.66,16.5,23.1,,00.0,0672.0,30.8
2021-10-08T23:30:00Z,00000200,01000000,0001.69,0000.60,0000.57,-000.19,0000.13,0000.14,0000.41,0000.31,-000.07,16.5,23.2,,00.0,0672.0,30.8
2021-10-08T23:31:00Z,00000200,01000000,0001.22,0000.69,0000.27,0000.03,0000.14,-000.09,0000.20,0000.64,0000.80,16.6,23.2,,00.0,0672.0,30.8
2021-10-08T23:32:00Z,00000200,01000000,0001.74,0000.81,0000.39,-000.32,0000.16,0000.23,0000.46,0000.05,-000.06,16.7,23.2,,00.0,0672.0,30.8
2021-10-08T23:33:00Z,00000200,01000000,0001.66,0001.01,0000.31,0000.33,0000.17,0000.08,0000.42,0000.74,-000.01,16.8,23.3,,00.0,0672.0,30.9
2021-10-08T23:34:00Z,00000200,01000000,0001.52,0000.88,0000.09,0000.24,0000.05,-000.21,0000.68,-000.25,0000.50,16.9,23.3,,00.0,0671.9,30.9
2021-10-08T23:35:00Z,00000200,01000000,0000.96,0000.72,0000.76,0000.04,-000.05,0000.12,0000.08,0000.23,0000.10,16.9,23.4,,00.0,0671.9,30.9
2021-10-08T23:36:00Z,00000200,01000000,0001.47,0000.73,0000.42,-000.22,0000.42,0000.07,0000.34,0000.35,0000.43,17.0,23.4,,00.0,0671.9,30.9
2021-10-08T23:37:00Z,00000200,01000000,0001.28,0000.42,0000.29,0000.07,0000.00,-000.14,-000.09,0000.09,-000.38,17.0,23.4,,00.0,0671.9,30.9
2021-10-08T23:38:00Z,00000200,01000000,0001.78,0000.99,0000.55,0000.01,0000.20,0000.22,-000.11,-000.10,0000.11,16.9,23.4,,00.0,0671.9,30.9
2021-10-08T23:39:00Z,00000200,01000000,0001.90,0001.12,0000.58,-000.23,0000.29,-000.09,0000.03,-000.05,-000.09,16.8,23.3,,00.0,0671.9,30.9
2021-10-08T23:40:00Z,00000200,01000000,0001.24,0000.99,0000.56,0000.69,0000.15,0000.29,0000.07,0000.18,0000.24,16.8,23.3,,00.0,0671.9,30.8
2021-10-08T23:41:00Z,00000200,01000000,0001.72,0001.03,0000.63,-000.39,0000.22,0000.13,0000.42,0000.49,0000.24,16.7,23.2,,00.0,0671.9,30.8
2021-10-08T23:42:00Z,00000200,01000000,0001.50,0000.99,0000.19,0000.71,0000.25,0000.09,0000.68,0000.61,0000.18,16.6,23.2,,00.0,0671.9,30.8
2021-10-08T23:43:00Z,00000200,01000000,0001.39,0000.86,0000.39,0000.12,-000.04,0000.17,0000.51,0000.49,0000.57,16.6,23.1,,00.0,0671.9,30.8
2021-10-08T23:44:00Z,00000200,01000000,0001.07,0000.98,0000.24,-000.05,0000.50,-000.01,0000.23,0000.26,0000.34,16.6,23.2,,00.0,0671.9,30.8
2021-10-08T23:45:00Z,00000200,01000000,0001.65,0000.78,0000.51,0000.02,0000.13,-000.15,0000.27,-000.18,-000.14,16.6,23.2,,00.0,0671.9,30.8
2021-10-08T23:46:00Z,00000200,01000000,0001.37,0000.37,0000.52,-000.06,0000.15,0000.15,-000.36,-000.10,-000.31,16.7,23.2,,00.0,0671.9,30.8
2021-10-08T23:47:00Z,00000200,01000000,0001.49,0000.69,0000.32,0000.43,-000.01,0000.08,-000.64,-000.69,0000.01,16.8,23.3,,00.0,0671.9,30.9
2021-10-08T23:48:00Z,00000200,01000000,0001.89,0001.15,0000.44,0000.65,0000.16,-000.02,0000.17,0000.25,-000.23,16.9,23.3,,00.0,0671.9,30.9
2021-10-08T23:49:00Z,00000200,01000000,0001.48,0000.76,0000.34,0000.11,0000.28,-000.16,0000.92,0001.19,0000.86,17.0,23.3,,00.0,0672.0,30.9
2021-10-08T23:50:00Z,00000200,01000000,0001.20,0000.81,0000.56,0000.50,0000.07,0000.08,0001.40,0001.61,0001.19,17.0,23.4,,00.0,0671.9,30.9
2021-10-08T23:51:00Z,00000200,01000000,0001.50,0001.03,0000.18,-000.49,0000.06,0000.01,-001.02,-001.41,-000.92,17.1,23.4,,00.0,0672.0,30.9
2021-10-08T23:52:00Z,00000200,01000000,0000.76,0000.71,0000.36,-000.08,0000.13,0000.18,-000.19,-000.56,-000.18,17.1,23.4,,00.0,0671.9,30.9
2021-10-08T23:53:00Z,00000200,01000000,0000.96,0001.12,0000.26,-000.00,0000.19,-000.26,0000.82,0000.84,0000.33,17.0,23.4,,00.0,0671.9,30.8
2021-10-08T23:54:00Z,00000200,01000000,0001.24,0000.92,0000.46,0000.11,0000.04,0000.09,0000.89,0000.71,0000.43,16.9,23.4,,00.0,0671.9,30.8
2021-10-08T23:55:00Z,00000200,01000000,0000.52,0001.02,0000.42,-000.06,-000.05,0000.08,0000.24,0000.62,0000.29,16.8,23.3,,00.0,0671.9,30.8
2021-10-08T23:56:00Z,00000200,01000000,0001.61,0001.10,0000.67,0000.61,0000.14,-000.13,-000.04,-000.21,0000.28,16.7,23.3,,00.0,0671.9,30.8
2021-10-08T23:57:00Z,00000200,41000000,,,,,,,0000.59,0000.72,0000.47,16.7,23.3,,00.0,0672.0,30.8
2021-10-08T23:58:00Z,00000200,61000000,,,,,,,-000.14,-000.15,-000.50,16.3,23.3,,00.0,0670.9,30.8
2021-10-08T23:59:00Z,00000200,21000000,,,,,,,-000.75,-000.34,0000.06,16.3,23.4,,00.0,0670.9,30.8
